Theta_e
336 333 337 335 342 337 337 335 335 336 338 337 340 337 337 343 340 338 342 338 339 339 339 340 340 341 341 343 343 343 342 342 343 344 344 346 347 348 349 349 348 348 349 350 351 349 345 344 346 349 350 346 346 347 346 346 347 347 345 343 342 343 341 339 338 340 345 348 347 348 352 352 352 357 357 359 362 362 360 363 364 363 363 363 364
335 334 336 335 334 335 334 334 335 336 337 335 339 337 336 336 336 340 338 338 339 339 339 339 341 340 341 341 342 342 342 342 342 342 343 344 344 346 347 347 347 347 348 347 348 349 349 348 349 350 351 350 349 349 349 349 349 347 345 345 343 342 343 339 339 340 340 347 347 350 350 353 349 356 357 357 360 362 362 362 363 364 363 364 364
334 334 335 335 334 334 334 334 335 335 335 335 334 334 335 335 338 338 337 337 339 340 340 340 339 340 340 341 340 340 341 342 342 342 342 342 342 343 345 346 346 346 346 347 347 348 347 347 348 349 349 348 349 349 350 349 349 348 347 347 346 345 345 343 340 339 340 342 347 346 348 352 352 354 358 359 361 362 361 360 361 363 363 363 363
334 335 334 334 333 333 333 333 334 334 334 334 334 334 334 334 337 337 338 338 338 339 340 339 340 339 339 339 340 340 341 341 341 342 342 342 342 342 344 344 345 346 346 346 347 347 346 347 346 347 348 347 348 348 348 349 348 348 348 348 348 347 347 345 343 339 341 340 345 344 349 350 353 355 357 359 359 360 361 362 363 362 362 363 363
334 334 334 334 333 333 333 333 333 333 334 333 333 334 334 335 337 340 338 337 338 337 339 340 339 338 338 338 339 339 340 341 341 341 341 342 342 342 343 343 344 344 345 346 348 347 346 346 346 347 347 346 346 346 347 347 348 348 347 347 348 348 348 348 347 344 342 341 343 347 350 351 354 356 358 356 359 360 361 360 361 360 362 363 364
334 334 333 333 333 332 333 333 333 333 333 333 333 334 334 335 336 336 339 337 336 336 337 337 338 338 338 338 339 340 340 340 340 340 341 342 342 342 343 343 344 344 345 345 345 346 346 347 347 348 347 346 346 347 348 347 348 347 346 346 347 348 347 347 347 346 344 343 344 344 347 346 350 354 357 358 355 355 356 359 360 360 359 358 360
333 333 332 333 332 332 332 332 333 332 333 333 333 334 335 335 335 335 337 337 336 335 336 336 337 337 338 338 339 339 339 340 340 340 340 341 341 341 342 342 343 344 344 345 346 346 346 347 348 348 347 347 346 346 347 347 346 346 347 347 347 346 346 346 346 345 344 342 343 344 344 348 349 346 353 358 358 356 354 354 354 359 360 359 359
333 333 332 332 332 332 332 332 332 332 332 333 334 334 334 334 334 335 337 335 335 335 335 335 335 337 337 338 339 340 340 339 339 339 340 340 341 342 342 342 343 343 344 345 346 345 346 347 347 348 348 348 348 348 348 346 347 345 346 346 346 345 345 346 346 345 343 343 342 342 342 343 346 350 353 354 354 354 354 353 351 354 356 359 359
332 332 331 331 331 331 331 333 333 334 335 333 333 333 333 333 334 334 335 335 337 336 335 335 334 335 336 337 338 338 337 337 338 339 340 341 342 342 342 343 343 343 343 344 345 346 346 346 346 347 349 350 351 351 350 349 346 345 347 347 347 346 345 345 345 345 343 342 342 342 340 340 343 345 348 349 349 349 356 354 353 355 357 356 358
331 331 330 331 331 331 331 333 334 332 332 332 332 332 333 333 334 333 333 333 333 335 334 334 335 334 334 336 336 336 337 337 340 343 343 342 341 341 342 342 342 342 342 342 343 344 345 345 346 349 348 348 348 349 348 349 349 347 345 343 344 343 343 344 344 343 343 341 340 341 339 339 341 344 344 347 352 355 354 354 352 355 355 353 356
330 330 331 331 330 330 331 332 332 331 332 332 332 332 332 332 332 331 332 332 332 332 334 332 333 334 334 334 334 335 336 337 340 340 340 341 341 341 340 340 341 340 340 340 340 342 343 345 346 346 348 349 350 350 349 349 348 349 347 349 348 346 343 340 342 344 343 341 342 342 340 340 342 345 345 347 351 352 352 354 353 353 351 349 347
331 330 331 330 330 331 331 331 331 331 331 331 332 331 331 331 330 331 331 330 331 333 331 331 332 332 333 333 333 334 335 338 336 336 337 337 339 341 340 340 339 339 339 339 340 341 341 343 344 346 346 347 347 347 348 349 348 348 349 348 348 348 347 346 343 343 343 341 342 342 342 341 342 343 344 346 348 351 353 353 352 351 350 349 349
331 330 330 329 331 331 331 331 331 331 331 331 331 331 330 330 330 330 329 331 332 330 330 330 330 331 332 331 332 333 335 336 335 335 335 335 336 339 339 338 337 338 338 338 339 339 340 341 342 344 345 346 349 349 348 348 350 349 349 346 347 348 341 342 347 345 344 344 343 342 343 344 342 343 346 346 350 347 351 350 351 351 352 350 350
330 330 330 329 330 330 330 330 330 331 331 330 330 329 329 329 330 330 331 331 329 328 329 329 330 330 331 332 333 333 334 336 333 332 331 331 333 335 337 336 336 336 337 337 338 338 339 339 339 341 343 345 346 346 346 346 346 346 346 346 346 346 347 346 346 348 349 346 344 343 346 348 345 346 348 349 348 345 346 349 351 350 350 349 354
328 328 329 330 330 330 330 330 330 331 331 329 329 329 329 329 329 330 330 329 329 329 329 329 329 332 331 331 331 332 333 334 331 330 328 327 330 335 336 336 336 336 337 337 337 338 339 339 340 340 341 343 344 345 344 343 344 344 344 343 344 345 345 345 346 346 346 347 347 347 349 350 349 349 349 350 350 351 352 351 352 353 354 353 350
329 328 329 330 330 330 330 330 329 329 329 329 328 328 328 328 328 329 331 329 329 329 329 329 329 329 330 330 330 330 332 329 327 327 325 325 330 335 335 334 334 335 335 337 337 338 339 339 339 339 340 341 344 344 345 346 343 339 339 341 342 344 345 347 341 342 347 348 348 348 349 350 347 351 352 351 350 351 353 354 351 350 348 346 344
329 329 332 330 331 330 330 329 329 330 329 328 328 328 328 328 328 330 328 328 327 327 328 328 329 329 329 331 330 330 330 329 326 325 324 324 331 334 334 334 333 333 334 336 337 338 338 339 339 339 339 340 340 334 336 343 339 338 338 339 340 341 342 345 341 337 336 334 333 335 336 337 337 335 334 336 345 349 348 345 342 346 344 341 342
329 330 329 330 330 330 329 329 329 329 328 328 328 328 328 328 327 329 328 327 327 327 328 328 329 330 330 329 329 329 331 332 327 324 323 324 330 333 333 332 332 332 334 335 336 336 337 339 342 341 341 341 338 332 332 338 337 337 336 337 337 338 340 343 344 345 338 334 333 333 333 334 335 335 336 334 333 342 345 339 342 344 342 343 340
327 328 329 329 329 329 329 329 329 328 328 328 328 327 327 327 329 329 328 327 327 328 329 328 327 328 328 328 331 331 331 331 325 323 322 323 329 333 332 331 330 331 332 333 335 335 336 338 340 341 341 341 330 328 329 338 337 336 336 336 335 336 338 342 342 341 342 343 344 344 344 345 347 347 348 343 340 346 346 345 344 342 339 341 343
329 328 328 328 329 330 329 331 330 329 327 327 327 326 328 328 327 327 327 326 326 326 326 326 325 325 327 328 328 329 328 329 330 323 321 321 323 332 333 330 329 329 330 331 331 334 335 336 338 335 329 327 324 323 323 325 333 336 336 334 334 334 340 341 342 342 341 342 342 344 344 346 347 348 349 349 349 350 348 345 344 343 341 341 343
327 328 328 328 328 328 328 327 327 327 327 327 327 328 327 326 326 325 325 325 324 324 323 324 324 325 326 326 327 327 328 329 330 323 320 320 321 327 331 330 330 329 329 329 330 330 332 334 336 335 326 323 321 320 319 320 326 334 335 335 335 337 340 339 339 342 341 341 343 343 343 344 345 346 346 347 346 347 348 344 345 344 342 341 341
327 327 327 327 327 328 327 327 328 328 328 328 325 324 325 326 325 325 325 324 323 322 323 324 323 323 324 325 326 326 328 331 330 326 322 319 318 320 327 329 330 329 327 327 328 329 331 333 335 334 326 323 321 318 316 318 321 329 331 323 324 326 333 336 336 336 337 339 340 340 341 342 342 343 344 345 345 346 345 345 344 345 345 345 343
328 327 327 328 328 328 327 327 327 327 326 326 324 323 324 324 324 325 323 322 322 321 322 322 322 322 323 324 325 326 327 328 329 329 325 319 317 317 318 323 324 328 325 324 325 327 330 332 334 333 325 320 316 315 315 316 322 326 319 319 320 322 329 331 333 332 333 335 337 337 339 340 341 341 342 342 345 346 345 345 346 346 345 347 349
327 327 329 327 326 326 327 327 325 324 325 325 324 324 324 324 324 323 323 322 321 320 321 322 322 321 321 322 324 325 327 327 328 328 328 321 317 315 315 315 317 323 326 325 326 327 329 330 332 322 317 312 312 314 316 321 324 316 315 317 319 325 329 329 329 331 332 333 334 336 337 340 341 342 343 344 344 346 345 345 346 347 345 345 347
328 327 325 325 325 325 324 324 324 324 324 324 323 325 324 323 322 322 322 322 321 320 321 322 321 321 321 322 323 324 325 326 326 327 327 328 321 318 317 317 317 316 323 327 328 329 325 319 316 315 316 315 315 316 317 320 315 314 314 316 327 329 328 329 329 330 330 331 333 335 337 339 340 343 346 348 348 348 346 344 342 343 344 344 344
328 327 325 324 324 323 323 323 323 324 325 325 325 324 323 322 321 321 322 321 321 321 320 321 321 322 322 322 323 323 325 325 325 326 327 328 328 323 321 321 327 328 329 328 328 324 320 318 316 316 318 320 326 327 327 329 326 324 323 328 331 330 330 329 329 328 329 331 332 333 335 338 339 343 346 347 345 344 344 343 342 340 341 341 340
327 325 322 322 323 323 322 322 325 326 325 324 323 323 323 322 321 322 321 321 321 321 321 321 321 321 321 322 323 324 324 324 324 325 326 326 326 326 326 325 326 326 327 328 328 326 327 328 328 324 323 324 326 329 331 332 333 333 333 333 333 333 333 332 330 329 330 330 332 334 336 338 340 340 340 341 341 343 345 343 343 342 341 340 338
325 322 321 322 322 323 323 326 326 323 323 322 321 321 321 322 321 320 321 321 320 320 321 321 321 321 321 321 321 321 322 323 323 324 325 326 323 321 321 321 320 321 322 323 324 326 327 329 327 330 331 330 329 330 330 331 330 330 331 332 332 333 334 335 335 334 333 333 333 334 335 336 335 337 339 340 340 342 344 343 341 340 343 342 338
324 321 321 321 320 323 324 324 324 323 321 321 321 321 320 320 321 322 324 324 323 321 322 321 323 322 322 321 320 319 320 320 322 320 324 314 314 313 315 316 317 317 319 317 319 319 320 321 323 326 327 327 326 327 328 328 328 329 329 330 331 331 333 333 331 332 333 333 332 332 333 334 335 337 337 337 339 341 343 343 343 342 344 343 340
323 321 321 321 321 322 324 324 323 322 321 320 320 321 323 319 319 322 322 324 321 316 313 319 321 322 320 320 321 319 318 321 317 309 304 303 303 303 305 304 303 308 312 310 312 311 313 315 319 323 325 327 326 326 326 327 326 327 328 329 330 331 332 333 334 334 334 333 334 333 333 334 334 336 337 337 338 340 341 337 341 341 339 339 337
323 320 321 320 322 324 324 323 322 321 320 320 319 319 320 321 311 309 314 320 315 309 305 305 306 308 315 316 318 315 313 309 305 303 302 301 300 300 299 299 299 300 301 305 310 312 313 314 318 321 323 325 324 325 326 327 327 328 328 329 330 331 331 331 333 335 334 334 334 334 334 334 334 335 335 336 336 339 341 340 339 339 337 336 336
319 318 318 319 322 324 324 322 322 320 320 319 318 319 318 318 320 312 307 310 310 307 304 303 303 303 305 308 314 317 313 308 304 302 301 301 300 299 299 298 298 298 300 301 306 311 315 316 319 321 323 323 324 326 327 327 327 327 327 327 328 331 331 331 334 336 335 333 331 331 332 332 334 334 334 334 335 337 339 340 339 337 337 338 336
318 317 317 321 322 323 322 321 320 319 318 318 318 318 318 318 317 319 320 305 305 306 305 304 302 302 302 301 300 302 303 302 301 299 299 300 299 299 299 299 298 298 299 302 308 312 315 318 319 321 322 323 324 325 326 327 327 327 326 326 327 329 331 333 333 335 334 334 333 332 332 333 334 334 333 334 334 335 337 338 340 339 339 337 337
316 317 320 323 321 320 319 318 318 318 318 318 318 319 320 320 320 320 319 320 320 311 304 302 301 301 301 301 302 302 302 302 301 300 301 300 300 300 299 303 299 298 300 309 312 314 316 317 319 321 322 323 324 325 325 326 327 327 327 328 330 331 333 335 335 334 334 335 334 334 335 335 335 334 335 336 336 336 336 337 339 338 337 337 336
316 320 323 324 321 319 319 319 318 318 318 319 319 320 320 321 321 321 320 320 318 318 319 320 312 307 314 310 306 304 302 300 301 301 301 301 301 300 300 308 311 313 304 303 309 313 316 318 319 321 322 323 323 324 325 325 326 327 329 330 331 332 333 334 334 335 334 335 334 334 335 335 336 335 334 334 335 336 336 337 337 337 336 337 338
316 316 317 319 319 319 319 319 318 318 318 319 320 320 320 320 320 320 319 320 320 318 319 318 319 315 311 306 303 302 302 302 302 301 301 300 300 299 306 309 312 315 317 318 316 315 317 318 319 320 321 322 323 324 325 326 327 328 330 330 330 331 332 331 334 334 334 334 333 334 332 334 335 335 335 336 336 336 337 337 337 337 337 338 339
316 316 318 319 319 320 320 319 319 320 320 319 319 318 318 318 320 319 319 318 317 317 316 316 317 318 318 320 320 309 306 304 303 302 301 301 300 305 309 311 312 313 315 316 318 320 320 321 321 321 322 321 322 323 324 325 327 328 329 331 330 330 330 330 331 333 333 331 333 333 332 332 333 333 332 332 332 334 335 337 337 336 335 336 335
316 317 318 320 321 321 319 319 321 321 319 319 318 317 316 316 317 317 317 315 314 314 313 314 317 315 314 315 319 317 316 309 306 304 303 301 307 312 313 314 315 316 316 318 319 321 321 323 324 323 323 323 323 324 324 326 327 329 330 330 331 331 332 331 332 332 332 332 332 332 333 333 333 333 332 332 331 332 332 333 334 334 333 332 332
317 320 321 322 322 322 321 321 321 319 318 317 316 316 315 314 314 313 313 312 312 313 314 314 314 314 315 315 314 316 313 311 310 310 311 312 313 314 315 315 315 316 317 318 320 322 322 323 325 326 327 326 326 326 327 327 328 329 331 331 331 330 330 329 329 328 329 330 331 332 333 333 333 335 334 333 332 333 333 333 333 334 334 334 334
319 317 318 321 322 321 322 322 321 318 318 316 315 315 314 313 313 312 312 311 312 313 313 313 313 313 314 314 313 312 309 309 310 310 311 312 313 314 315 315 315 316 317 318 319 320 322 323 324 325 326 327 328 329 329 329 330 331 330 332 330 328 328 328 329 329 330 331 332 334 334 334 335 336 335 334 334 334 334 334 333 333 335 335 336
315 317 323 322 321 322 321 321 320 319 318 316 315 314 313 313 313 313 312 312 312 313 313 313 313 313 314 311 307 306 308 309 310 311 312 313 314 314 315 316 316 317 318 319 319 320 321 322 323 325 326 327 329 329 330 330 330 330 331 330 329 328 328 328 329 329 332 333 333 331 331 332 331 331 330 331 333 334 334 334 333 333 333 334 335
316 318 320 321 321 322 321 320 320 320 317 316 314 314 314 313 312 312 311 311 312 313 313 313 313 314 311 308 305 303 308 311 313 313 313 314 314 315 317 317 318 318 319 319 320 320 321 322 324 325 327 328 329 329 329 330 330 330 329 329 329 329 328 330 331 333 333 330 330 330 331 331 332 333 332 332 332 332 333 334 334 335 334 333 333
321 322 322 322 322 321 320 320 320 318 317 315 315 315 314 312 312 311 310 311 312 312 312 312 312 313 313 310 309 307 311 312 314 313 313 314 315 316 317 317 318 319 319 320 321 322 322 323 324 327 328 329 330 330 330 331 330 328 328 328 328 328 328 330 333 333 331 332 333 332 332 332 331 331 331 331 330 330 330 332 333 334 333 332 330
322 322 322 322 322 321 320 319 318 319 318 317 315 314 314 313 311 310 310 310 310 310 311 311 312 311 312 311 310 310 312 311 311 312 313 314 315 315 315 316 317 318 319 320 321 322 322 322 323 329 331 332 333 333 333 334 331 330 330 329 328 329 331 333 334 332 333 334 333 333 332 331 330 330 329 328 328 327 326 326 325 324 324 324 324
316 318 320 319 320 319 319 318 318 318 318 316 313 311 312 311 310 310 310 310 310 310 310 310 310 310 311 311 311 311 311 310 312 312 312 313 313 314 315 316 316 317 318 320 320 321 321 321 322 326 331 333 333 333 334 334 332 331 332 330 329 330 332 335 336 336 335 335 334 333 332 331 329 328 327 327 326 325 324 324 323 323 321 321 321
317 317 318 318 318 319 318 316 317 316 315 313 311 310 310 310 310 310 310 310 310 310 310 309 309 310 310 310 311 311 310 310 311 311 312 312 313 314 315 315 316 316 317 318 319 319 319 320 321 322 327 332 333 333 332 332 332 332 332 331 331 332 335 338 337 334 334 334 334 334 332 331 329 328 328 326 325 324 323 323 322 322 320 319 319
314 315 316 317 317 317 316 315 313 315 313 311 311 310 309 309 310 310 311 310 310 310 309 308 308 308 309 309 309 309 310 310 310 310 310 310 311 312 313 314 314 315 316 317 318 318 318 318 319 320 323 326 330 331 330 331 331 331 332 332 333 334 337 337 336 335 334 334 334 333 331 329 328 327 327 326 325 323 323 322 322 320 319 317 316
314 315 315 316 316 315 313 312 312 313 310 309 310 310 309 309 309 309 309 309 309 309 309 308 307 308 309 308 309 309 309 309 309 309 309 309 309 310 311 312 313 314 315 316 316 317 317 317 318 319 321 323 324 324 323 324 328 329 329 329 330 332 329 324 337 336 335 334 333 332 330 329 328 327 327 326 324 323 322 321 321 320 319 317 316
314 314 313 314 315 313 312 311 312 309 308 308 308 307 308 308 308 308 308 309 308 309 308 307 306 307 307 308 308 308 309 309 308 308 308 308 308 309 310 311 313 313 314 314 314 315 315 316 317 318 319 321 321 321 321 322 324 326 326 325 321 309 312 317 327 335 325 333 332 331 331 329 328 327 326 326 324 324 322 322 321 320 319 318 318
313 313 313 313 313 312 313 312 309 308 308 308 307 307 307 307 306 308 308 308 308 308 308 307 306 306 306 306 307 307 307 307 307 307 307 307 307 308 308 309 311 312 312 313 313 314 314 315 316 316 317 318 319 319 320 321 321 322 323 323 311 306 311 313 315 314 329 335 333 332 331 329 328 328 327 326 325 324 323 322 321 320 319 318 318
314 312 312 313 312 312 311 309 308 308 307 308 308 306 306 306 305 306 308 308 307 308 308 307 306 307 306 306 307 307 306 306 307 307 306 306 306 307 307 308 309 310 311 312 313 313 314 314 315 315 316 316 318 318 318 317 317 315 308 304 305 305 306 312 327 312 313 319 334 332 331 328 328 328 327 327 326 324 323 322 322 321 320 319 318
Wind_Speed
4 3 2 3 2 1 1 2 2 2 1 1 2 3 3 2 3 3 3 4 4 4 4 5 5 4 5 5 5 5 5 5 4 4 4 4 3 4 5 6 7 7 7 7 8 7 7 8 7 7 7 7 7 7 8 8 8 7 8 8 8 7 7 9 12 12 7 4 6 6 4 3 4 6 7 6 6 7 9 9 9 9 9 8 9
4 3 3 4 4 3 3 2 2 2 2 3 3 3 3 4 3 3 3 5 3 4 5 4 4 5 4 5 5 5 5 5 5 3 4 4 5 3 4 5 6 7 6 8 8 6 7 8 9 9 7 8 8 8 8 8 7 7 6 7 8 9 10 10 11 10 10 2 4 4 4 4 5 4 6 6 6 5 7 7 7 8 8 7 7
5 4 4 5 5 4 2 3 2 3 3 3 4 4 4 4 3 3 4 4 4 4 5 5 5 5 5 5 5 5 5 5 5 4 4 4 5 5 4 5 6 7 7 8 9 8 8 7 7 7 6 7 7 8 8 8 8 8 9 7 7 9 11 13 11 10 10 7 4 5 4 3 5 5 5 5 5 3 6 7 7 6 7 8 7
4 4 4 4 4 3 3 3 3 3 3 4 4 5 4 4 3 3 4 3 4 4 4 5 5 5 5 5 5 5 5 5 5 5 5 5 5 5 5 5 5 6 8 8 8 7 8 8 8 8 7 7 8 8 7 8 8 8 10 9 9 9 8 9 12 11 8 9 5 5 3 4 4 5 4 4 4 4 5 5 4 7 8 7 8
4 4 5 5 4 4 5 4 4 4 4 4 5 5 4 4 3 4 4 4 4 4 5 4 5 5 5 5 5 5 5 5 5 5 5 5 5 5 5 5 5 6 7 8 8 8 8 8 9 8 8 9 8 8 8 9 8 8 9 8 9 9 8 8 7 8 9 9 7 5 4 4 4 4 3 4 4 4 4 6 6 6 6 6 5
4 4 5 4 4 5 5 4 5 5 5 4 5 4 4 4 4 4 3 4 4 4 5 5 4 5 5 6 5 5 5 5 5 6 6 5 5 5 5 5 6 6 7 9 9 9 8 8 8 8 9 9 9 9 8 9 8 9 10 9 8 8 9 9 7 7 8 8 7 7 5 5 4 5 4 4 5 5 4 5 4 5 5 6 6
5 5 5 5 4 5 5 5 5 5 5 5 4 3 4 4 4 5 4 4 4 5 5 5 5 5 6 5 5 6 5 5 5 5 6 6 6 5 5 5 6 5 6 7 7 9 8 8 8 8 9 9 9 9 9 10 8 10 10 10 8 8 8 9 7 7 7 8 7 7 6 5 5 8 5 3 5 5 5 3 5 4 4 6 6
4 4 4 4 5 6 6 5 5 5 4 4 4 4 4 4 4 4 3 4 5 5 6 6 5 5 5 5 6 5 5 5 5 5 5 5 5 5 5 5 6 6 7 6 7 9 9 8 8 8 9 9 9 10 9 9 9 10 10 8 8 8 9 8 8 9 8 8 9 8 7 7 6 5 3 2 3 4 5 6 7 6 6 6 8
4 4 4 5 6 5 5 4 4 4 4 4 4 5 4 4 4 4 4 4 4 5 5 5 6 6 5 6 6 5 5 5 4 5 5 6 5 5 5 6 7 7 7 8 7 7 7 9 9 9 10 13 16 15 14 12 8 9 9 9 9 9 10 10 8 8 7 9 9 6 6 7 7 7 5 5 7 8 4 7 7 6 5 4 5
4 4 5 6 5 4 4 4 4 4 4 5 5 5 4 4 4 4 5 5 5 5 5 5 5 6 6 6 6 4 4 4 7 13 11 7 7 6 6 6 7 7 7 7 8 7 7 6 7 13 15 15 16 17 17 16 16 12 9 9 10 9 9 8 9 8 9 10 9 7 8 8 8 8 9 8 5 4 5 5 7 6 4 5 4
4 4 5 5 4 4 4 5 4 5 5 5 5 5 5 3 4 5 5 5 6 5 4 5 5 5 6 5 6 5 5 5 12 11 10 12 8 6 6 6 6 7 8 8 8 8 7 7 6 9 12 13 12 16 16 16 15 16 18 17 15 10 9 10 10 10 8 9 9 8 8 9 9 8 8 8 6 7 7 5 6 5 6 6 7
4 5 5 5 4 5 5 5 5 5 5 5 5 4 3 4 4 5 5 6 5 4 5 5 6 5 5 5 6 6 5 9 12 12 12 11 10 7 6 6 6 7 7 8 8 8 8 8 7 6 7 9 9 8 12 15 15 15 16 16 16 18 17 11 11 9 10 9 10 11 9 9 9 7 8 7 7 6 6 6 6 7 7 7 7
4 5 5 4 5 5 5 5 5 6 6 5 4 3 4 5 5 5 6 6 5 6 6 6 6 5 5 6 6 6 6 9 11 12 12 11 11 9 5 6 6 7 6 7 7 8 8 8 8 8 7 12 10 9 9 9 12 15 15 16 15 14 13 13 16 13 10 11 10 11 10 9 10 9 7 7 6 9 6 7 6 6 6 7 8
4 5 4 5 5 5 5 5 5 6 6 5 4 5 5 6 6 5 5 5 5 6 6 7 6 6 5 6 6 6 7 9 11 11 11 11 11 9 5 6 7 7 8 7 7 7 8 9 8 8 7 7 7 9 10 10 9 9 8 8 8 11 13 14 15 16 15 11 11 12 10 8 9 8 7 7 8 11 9 7 6 7 7 10 6
4 4 5 5 5 5 5 4 5 5 5 5 5 5 6 6 6 6 5 5 6 6 6 6 6 6 6 5 5 6 6 11 11 12 11 12 11 9 5 6 7 8 8 7 8 8 8 8 9 9 9 8 7 8 9 10 9 7 9 9 9 10 10 11 11 10 9 8 10 12 12 11 12 10 8 7 9 9 9 10 8 8 5 0 0
5 5 5 5 5 5 4 5 5 5 5 5 5 6 6 6 7 6 5 6 5 4 5 5 5 6 6 5 6 6 6 10 11 12 12 12 11 6 5 6 8 8 8 8 7 6 7 8 10 9 10 10 11 14 14 9 8 10 11 9 10 9 9 9 12 12 11 10 9 10 9 10 11 12 10 9 9 9 9 5 1 3 5 7 10
5 4 4 5 5 5 4 4 5 5 5 6 6 6 6 7 7 4 5 6 6 6 6 5 5 6 6 6 6 6 7 9 11 12 12 13 8 5 5 6 7 8 8 8 7 7 7 8 9 9 10 9 11 11 12 14 9 10 10 10 9 9 9 9 11 12 13 15 16 16 17 16 15 15 13 15 13 9 8 8 11 9 8 10 10
5 4 5 5 5 4 4 4 5 6 6 6 6 6 6 5 6 4 5 6 7 6 5 5 5 5 5 7 6 7 7 9 12 11 12 12 10 6 6 7 7 7 7 7 8 8 9 14 12 8 8 9 10 11 12 12 10 10 9 10 9 9 10 8 7 7 10 12 13 15 16 16 16 17 16 14 15 12 10 11 12 8 9 9 11
4 5 5 4 4 4 4 4 5 5 6 7 6 7 7 6 6 5 5 5 6 6 5 5 6 5 6 6 10 11 8 9 12 12 12 12 9 5 7 7 8 7 6 7 6 7 8 9 13 11 9 9 11 10 9 9 9 10 10 10 11 11 10 9 7 8 9 10 10 10 11 13 12 11 12 16 17 17 13 14 10 10 12 12 12
5 4 4 4 4 4 3 4 5 5 6 6 6 6 5 5 6 6 6 4 5 5 6 5 7 7 7 6 6 7 8 8 10 13 12 12 12 7 6 8 8 7 7 7 8 7 7 7 9 11 11 12 12 12 11 10 9 8 9 9 10 12 9 8 9 9 11 10 10 9 10 9 9 9 8 10 12 14 13 13 12 10 11 14 13
4 4 3 4 4 4 4 4 5 6 5 5 6 6 6 6 6 6 6 6 6 6 7 6 6 8 8 8 7 7 6 8 9 12 12 12 12 9 5 7 6 6 6 8 7 8 8 8 7 9 12 12 12 13 13 13 11 9 10 10 10 10 10 9 10 15 12 12 10 10 9 9 8 9 9 9 9 9 10 12 13 13 13 14 12
3 3 4 4 4 4 5 5 4 5 5 5 6 7 6 6 5 6 5 6 7 7 8 7 7 8 8 7 7 8 9 13 10 11 12 12 12 12 7 7 7 8 9 8 8 7 7 8 8 9 12 12 13 13 14 13 12 8 9 12 12 11 9 8 9 9 9 8 10 10 10 10 9 8 9 9 9 10 11 12 13 13 13 13 13
3 3 4 4 5 5 5 6 6 5 5 5 6 7 6 6 6 6 6 6 7 8 8 7 8 8 7 7 6 7 6 7 12 11 12 12 12 12 13 10 12 8 8 10 10 8 8 8 9 14 13 13 12 12 12 11 9 7 11 11 11 11 10 7 8 10 10 10 10 10 10 9 9 10 9 10 10 10 9 9 12 12 13 13 14
3 4 4 4 5 6 5 6 6 5 5 5 6 6 7 6 6 6 6 6 6 8 8 8 8 8 8 9 8 7 6 6 8 12 11 13 13 13 14 14 13 9 9 9 8 8 8 9 9 13 13 13 13 13 12 11 9 10 10 11 12 13 9 9 9 10 10 10 12 11 10 9 9 10 10 10 10 8 9 10 10 11 11 9 11
3 4 5 5 5 5 5 5 5 5 5 4 5 5 7 7 8 7 6 6 7 8 7 7 9 10 10 10 8 9 9 7 6 8 13 13 13 13 13 13 13 13 9 8 9 9 11 13 15 15 15 15 15 14 12 12 13 13 14 14 13 8 10 9 9 9 10 10 10 11 10 11 10 9 8 7 8 7 8 7 8 10 10 12 13
3 3 4 5 5 5 6 6 6 5 5 4 5 5 6 6 7 7 7 7 7 7 9 10 10 10 9 8 8 9 9 9 8 8 8 10 10 10 12 12 16 15 15 12 15 16 15 14 14 15 14 14 12 9 8 8 11 13 13 14 9 9 10 11 10 10 10 9 10 11 10 10 9 7 8 8 7 8 8 8 7 8 8 8 9
3 3 4 5 5 4 5 5 5 5 5 5 5 5 5 5 6 7 6 7 7 8 10 10 11 10 10 10 9 8 7 8 7 8 7 7 6 6 8 9 14 15 11 9 10 9 11 11 10 12 13 15 15 15 14 14 12 11 9 10 10 10 9 9 10 10 10 10 9 10 10 9 8 8 9 8 10 10 9 8 7 7 8 9 10
3 4 5 4 5 5 5 7 7 5 6 6 6 6 5 4 6 7 7 7 8 9 9 10 11 10 9 10 9 9 9 8 7 6 7 7 8 7 7 6 7 6 8 8 8 9 9 11 11 9 9 9 9 9 8 9 9 9 9 9 10 10 11 14 15 10 10 9 9 9 8 8 8 8 8 9 9 9 7 8 8 9 8 7 9
3 4 4 5 6 5 5 5 5 6 6 6 6 6 6 7 7 7 8 6 6 7 8 10 10 9 8 10 10 11 10 10 8 8 11 11 10 8 6 7 7 8 11 13 12 9 8 9 9 9 9 11 10 9 8 8 9 8 9 9 9 9 8 8 9 9 9 9 10 9 9 8 9 9 9 9 9 9 8 9 9 10 9 9 11
4 5 4 5 5 5 5 5 6 6 6 6 7 9 8 8 8 8 9 12 14 13 9 8 8 7 8 8 7 9 10 10 14 16 15 14 13 12 11 12 13 12 14 16 11 9 9 9 9 9 8 8 9 9 10 9 9 9 8 9 9 8 7 7 8 9 8 9 10 10 10 9 10 9 9 10 9 7 8 10 9 8 10 9 8
3 4 5 5 5 5 5 6 5 6 6 6 7 8 10 9 8 13 14 15 15 16 16 16 15 13 8 7 9 13 14 16 17 14 13 13 13 13 13 14 15 15 12 8 6 7 8 8 8 8 7 7 8 9 9 8 9 9 10 9 8 9 9 8 7 7 8 10 9 8 9 9 10 10 12 10 11 8 7 8 9 8 8 8 5
3 4 4 5 5 5 5 5 6 5 6 6 7 8 9 11 11 7 13 15 15 15 15 16 16 14 14 12 9 7 12 14 15 15 14 14 14 14 15 15 15 14 13 7 6 8 7 7 8 8 8 8 9 10 9 9 9 10 11 9 8 8 9 8 7 7 7 8 10 10 10 10 10 10 11 11 9 9 9 7 9 8 9 9 10
3 4 4 4 4 5 5 5 6 5 6 8 9 8 10 10 12 13 7 11 14 15 15 15 14 14 14 14 14 12 13 14 15 14 14 14 15 15 16 16 14 13 6 5 7 8 7 8 9 8 7 8 9 9 9 10 9 10 11 10 10 9 9 9 9 8 9 9 8 9 10 10 10 10 9 8 8 8 8 9 9 8 9 9 7
3 3 4 4 5 5 5 5 5 6 6 7 8 9 10 10 10 10 12 11 7 7 10 13 13 13 12 13 14 15 15 14 13 13 14 15 15 17 15 13 14 15 12 9 7 8 8 9 9 9 8 8 9 9 11 10 10 10 10 9 9 9 9 8 8 11 10 9 9 9 9 9 9 9 8 8 9 9 8 9 9 9 8 8 8
3 4 7 6 4 5 5 5 6 7 7 9 9 10 9 9 8 9 9 10 12 12 10 8 7 9 11 12 13 15 15 14 14 14 15 16 17 18 13 9 9 7 5 7 7 7 8 8 8 8 8 8 9 9 9 10 10 10 8 10 10 10 9 8 9 9 9 8 8 8 8 9 8 8 8 8 8 8 9 8 8 9 10 10 9
3 4 4 5 4 4 4 5 5 6 7 7 8 9 9 9 9 9 8 9 10 11 11 9 8 10 15 14 13 12 13 14 15 15 15 17 18 15 8 7 7 8 7 6 7 8 8 9 9 9 8 9 9 9 9 9 9 9 9 9 9 8 8 8 8 9 9 8 8 8 8 8 9 10 9 9 10 10 8 8 9 9 10 10 8
3 4 4 4 4 4 4 4 5 6 8 8 8 9 9 9 9 8 8 9 10 10 10 11 11 10 9 8 11 13 14 14 16 17 17 17 17 10 6 7 8 9 9 8 7 7 8 9 9 8 9 10 9 8 8 9 8 8 9 9 8 8 8 10 11 10 8 7 7 8 8 9 9 9 9 9 8 8 8 8 9 9 9 10 9
3 4 4 4 4 4 4 5 5 8 7 7 7 8 9 9 9 9 10 11 12 11 11 11 13 10 11 9 12 11 15 16 17 14 9 9 7 5 6 6 7 8 8 8 8 8 9 8 8 8 9 10 9 8 7 7 7 6 7 7 7 8 12 11 13 9 7 6 6 6 6 7 7 8 7 8 8 7 8 8 7 6 6 7 6
3 4 6 7 4 4 4 4 6 6 7 7 7 8 9 9 10 10 10 11 11 10 10 10 10 10 9 9 9 11 13 11 13 13 13 10 7 7 7 8 7 8 8 8 8 8 8 8 8 8 8 9 9 8 7 7 7 8 8 7 7 7 7 6 5 4 7 7 8 7 8 8 8 7 8 8 8 8 8 8 8 8 8 7 7
4 4 4 5 4 4 4 5 5 5 6 7 7 7 8 8 9 10 9 9 10 10 11 11 11 10 9 9 9 10 10 13 12 12 13 12 10 9 8 8 8 7 8 9 8 8 8 8 8 8 8 7 7 7 7 7 7 7 8 8 8 7 6 4 3 4 6 8 8 7 7 8 7 7 8 8 8 8 8 9 8 8 8 8 7
4 4 3 3 4 4 4 5 4 5 5 6 6 6 7 8 9 10 11 10 10 10 11 11 10 9 9 11 14 13 8 10 11 12 11 11 11 11 9 8 9 8 8 8 8 8 8 8 8 8 8 7 7 6 6 7 7 7 6 5 6 6 6 4 3 5 6 6 5 4 3 4 4 4 7 8 8 8 8 8 8 8 8 8 8
4 4 4 4 4 4 4 5 5 6 5 6 6 6 7 8 9 9 10 10 10 10 11 12 11 10 11 16 15 17 12 10 9 10 10 10 10 9 9 9 8 8 8 9 9 9 9 9 9 8 8 7 7 7 6 6 6 6 6 6 5 3 3 4 5 5 4 2 1 2 2 3 3 4 5 5 6 7 8 9 9 9 8 8 8
3 3 3 4 4 4 5 5 5 5 5 5 5 7 8 8 8 9 9 9 10 10 11 12 12 12 12 15 14 14 9 8 10 10 10 9 9 9 8 8 8 9 8 9 8 8 8 9 9 8 7 7 7 7 7 7 6 7 6 4 1 3 4 5 4 3 1 1 1 1 1 2 2 2 2 2 2 3 5 6 7 8 8 8 8
3 3 3 4 4 4 4 5 5 5 5 7 8 7 7 7 7 8 8 9 10 10 11 11 11 11 11 12 11 9 9 9 9 9 10 10 9 9 8 9 9 9 9 9 8 8 8 8 9 8 6 7 8 8 7 6 4 3 3 2 3 5 5 5 3 2 1 1 2 2 3 3 3 4 4 4 3 3 4 5 6 7 8 7 7
3 4 4 5 4 4 4 4 5 5 6 5 5 5 7 6 7 7 9 9 11 11 10 11 11 11 11 11 10 10 10 9 10 10 10 9 9 9 9 9 9 9 9 9 8 8 8 8 8 9 7 5 5 5 5 3 2 3 4 6 5 4 5 4 3 1 1 2 3 4 5 5 5 5 6 6 6 7 8 8 9 10 11 10 11
4 4 4 4 4 4 4 4 5 5 4 4 5 6 6 6 6 7 9 10 11 11 11 11 10 11 11 11 11 10 10 10 10 9 9 9 10 9 9 9 9 9 8 8 8 8 7 7 7 8 9 6 4 4 4 3 3 4 4 4 2 3 3 1 2 2 2 3 3 4 5 6 7 7 10 9 9 8 9 10 10 10 11 13 14
4 4 3 4 4 4 4 4 4 4 4 5 5 6 6 6 6 7 7 10 11 11 11 9 10 10 11 11 11 11 11 10 10 10 10 10 10 10 10 10 9 9 9 8 8 7 7 7 6 6 7 7 3 2 2 1 1 3 5 5 3 4 2 2 2 2 2 3 3 3 5 7 7 7 10 10 10 10 11 11 11 13 12 13 13
3 3 3 3 4 3 4 4 5 5 5 5 6 6 6 6 6 7 7 8 10 10 10 9 9 10 12 11 10 10 10 10 9 9 9 10 10 10 10 10 10 9 9 8 7 7 7 7 6 6 5 5 3 2 2 2 2 2 2 2 2 3 4 4 3 3 3 4 4 5 6 6 6 7 8 9 10 10 11 10 10 11 13 13 13
3 3 3 3 3 3 3 4 4 4 5 5 5 6 6 6 6 6 6 7 9 9 8 9 10 10 10 10 10 11 10 10 10 10 9 10 10 10 10 10 10 9 8 8 8 7 7 6 6 7 7 6 4 2 2 1 0 1 2 3 3 5 8 8 5 5 6 6 5 6 6 7 7 7 8 9 9 10 10 10 10 10 10 10 10
2 2 2 3 3 3 3 3 3 4 4 4 5 5 6 6 6 6 7 6 8 8 8 8 9 9 10 11 12 12 11 11 10 11 11 10 10 10 10 10 10 9 9 8 8 7 6 6 6 6 6 6 6 5 3 1 2 3 3 4 4 5 8 11 10 9 7 5 6 6 5 7 7 7 7 9 9 10 10 10 10 10 10 10 9
1 1 2 3 3 4 4 4 5 5 5 5 5 5 5 5 6 6 6 6 8 8 8 8 9 10 10 10 11 10 11 11 10 9 9 11 11 10 10 10 10 10 9 9 8 7 7 6 6 5 5 4 5 4 4 5 3 2 5 9 6 3 8 10 7 6 10 8 6 7 6 7 8 7 8 7 9 9 10 9 10 9 9 9 10
Wind_Direction
168 191 149 204 206 180 276 326 316 292 308 241 245 260 266 270 265 259 295 294 299 305 299 292 290 285 291 293 294 295 302 299 298 293 290 280 264 260 264 260 255 258 261 267 260 247 247 254 250 246 238 231 236 239 239 238 229 222 215 224 237 232 228 237 253 264 257 228 253 253 255 238 247 217 240 241 233 226 223 228 226 225 225 227 229
190 202 199 196 189 212 244 241 270 285 288 295 275 280 281 271 269 285 274 283 286 285 287 285 284 288 279 278 279 282 284 285 285 291 284 285 284 267 258 257 255 255 255 263 270 266 261 260 265 267 256 253 258 259 250 251 253 248 220 209 218 229 221 234 247 254 264 198 247 246 260 212 254 203 221 240 241 221 223 223 222 219 224 226 225
198 187 188 191 214 225 237 256 231 240 259 273 272 271 272 277 257 260 268 280 278 263 271 279 284 282 280 273 272 272 271 275 280 278 277 267 272 278 271 263 262 262 259 259 263 266 265 265 271 272 270 268 261 258 261 262 261 255 251 237 222 221 218 216 233 251 259 261 236 252 236 221 226 245 221 232 252 230 231 230 222 217 224 225 227
195 186 196 217 225 241 248 244 246 241 246 251 256 262 264 270 265 253 265 262 271 281 278 277 280 278 275 278 270 270 273 270 272 265 264 268 268 268 269 266 261 261 263 264 266 262 264 268 272 274 271 268 265 263 259 258 257 260 259 254 251 248 234 218 209 235 255 264 245 245 241 258 250 249 257 241 239 227 226 242 232 230 226 222 227
186 202 199 215 225 237 259 240 245 247 243 245 250 261 264 267 260 259 265 273 274 283 285 285 278 273 272 272 275 270 267 266 271 273 267 258 257 260 266 265 260 257 258 261 263 265 266 261 268 269 268 265 262 262 261 258 259 260 262 259 258 256 254 250 245 229 248 256 262 252 253 248 257 269 239 248 244 233 228 234 228 231 232 231 231
201 200 206 208 236 249 258 259 246 243 243 243 246 253 265 261 262 267 246 264 277 271 273 277 279 280 275 273 268 269 266 263 259 265 269 268 262 258 257 260 263 261 262 264 262 261 263 261 260 259 262 265 266 263 258 258 259 259 260 260 257 260 260 257 250 251 248 254 254 263 239 245 256 248 238 225 240 249 243 241 245 236 233 234 228
203 202 203 213 239 256 255 251 249 250 246 247 253 261 259 256 254 261 259 265 275 282 280 278 280 274 278 276 273 270 271 270 266 262 262 261 259 264 261 260 262 262 257 255 255 261 259 257 259 258 258 260 264 265 263 261 257 258 258 260 257 257 258 256 248 243 245 252 252 247 255 242 232 260 253 233 239 232 244 254 252 225 219 226 240
200 205 204 229 241 254 252 251 255 253 253 249 255 260 256 254 252 257 267 271 271 271 277 280 283 285 278 276 274 276 275 275 271 263 258 255 255 252 253 257 266 266 264 259 258 263 261 256 253 254 252 257 258 258 254 255 253 255 257 254 255 256 257 257 254 249 246 247 251 252 244 252 246 232 243 237 240 240 221 226 239 236 220 214 224
198 204 213 231 246 249 263 270 267 269 271 272 267 261 254 255 266 273 271 272 266 268 273 275 282 284 282 274 275 272 271 269 263 259 254 260 242 247 256 260 271 271 273 272 264 258 260 261 259 255 252 250 252 253 254 255 258 264 256 248 248 250 256 260 259 257 250 250 250 234 242 241 242 242 229 217 221 234 213 215 234 238 240 242 236
189 200 220 240 254 261 264 271 269 264 265 262 257 254 251 254 256 268 267 265 266 269 269 268 268 276 281 284 281 279 271 263 275 283 292 289 286 284 274 272 270 268 268 271 271 264 256 252 254 256 256 258 264 268 268 263 254 250 262 266 260 258 257 258 258 255 255 256 252 243 238 242 243 238 244 236 225 230 237 213 228 237 234 248 267
201 208 238 250 262 277 277 272 268 273 268 264 258 251 252 251 265 265 268 267 267 270 269 267 269 272 277 280 283 278 276 274 285 287 285 289 289 278 271 272 263 267 269 268 269 270 265 256 252 260 265 270 267 265 266 268 263 261 256 254 256 253 253 257 256 253 251 252 250 244 245 248 243 241 244 249 228 217 221 210 224 228 225 226 247
211 230 244 265 277 280 281 289 294 291 287 273 258 253 257 266 269 270 274 280 275 266 269 270 273 277 278 280 278 279 275 282 284 285 287 285 285 282 277 273 271 270 265 264 264 264 265 265 261 255 259 257 260 261 263 265 264 258 259 261 263 265 263 256 260 264 252 249 249 244 241 242 249 239 245 245 244 237 228 219 216 217 221 221 225
224 245 257 262 275 276 283 296 300 299 291 279 275 274 278 281 279 283 285 284 290 292 291 289 288 284 279 280 279 277 275 280 281 284 288 289 288 289 276 269 266 267 258 259 257 259 261 263 267 263 256 258 259 261 264 266 262 262 265 273 273 273 274 270 261 254 258 255 253 253 240 241 245 241 235 248 247 247 227 227 220 223 225 228 227
232 260 284 280 276 283 285 294 297 292 290 290 294 296 293 284 281 272 278 291 295 294 298 296 296 294 288 285 284 283 274 277 279 285 289 291 291 289 273 272 272 267 264 255 256 258 256 260 263 264 258 254 255 259 262 262 266 268 266 263 266 272 272 265 266 266 263 258 257 257 249 234 246 246 234 230 239 248 244 232 219 221 216 226 226
293 285 283 278 279 277 283 292 292 290 291 289 294 289 283 285 288 285 285 285 290 292 291 294 288 288 289 285 280 282 278 284 286 287 288 290 290 292 277 282 283 277 271 263 257 257 256 256 256 258 262 259 251 252 257 261 262 263 267 266 263 263 264 266 265 263 260 256 257 260 263 259 258 252 242 227 238 246 246 249 237 224 230 50 310
281 280 273 274 279 280 286 298 296 297 298 297 293 286 285 279 286 292 296 291 279 271 272 264 275 285 286 285 285 284 283 287 287 288 288 289 290 289 280 281 286 283 280 271 260 254 255 254 259 261 260 260 259 260 263 267 270 267 266 263 262 259 258 250 250 254 256 253 252 255 258 259 257 254 242 238 241 241 249 254 278 215 201 220 233
267 273 283 281 285 285 288 298 301 301 303 300 295 293 293 296 292 283 289 292 292 284 281 280 282 283 290 292 289 287 290 292 290 288 290 293 295 283 277 283 283 284 280 276 271 264 260 254 255 258 262 261 260 260 263 270 266 267 267 267 266 263 263 263 249 245 249 252 254 256 257 257 253 251 245 239 240 236 243 240 235 217 219 228 233
259 273 278 282 282 296 304 293 300 306 308 303 300 298 294 286 280 283 285 292 294 292 290 288 285 282 283 287 283 286 288 289 287 288 287 289 289 284 283 283 280 279 280 275 274 271 264 261 258 255 256 261 256 254 257 266 267 266 264 265 270 268 264 256 262 257 237 242 249 253 256 257 253 253 250 244 241 236 232 232 232 217 228 226 237
270 267 269 280 292 287 287 300 303 298 300 302 301 300 297 293 290 291 279 271 277 285 292 287 288 282 272 271 283 287 287 289 289 285 282 284 289 284 286 284 285 277 275 278 273 273 271 264 260 257 256 259 259 263 262 266 274 269 266 265 264 263 263 265 260 267 265 264 260 257 256 252 251 247 248 243 238 241 233 235 227 218 224 228 230
250 257 269 282 292 305 302 301 290 288 292 296 299 294 289 293 296 298 295 289 289 292 291 288 287 285 286 278 274 275 279 280 283 284 282 282 285 282 282 288 285 285 283 279 282 276 271 267 261 254 253 256 262 264 264 259 255 265 274 268 265 263 266 269 263 259 263 258 258 255 257 253 253 245 242 245 246 237 230 226 225 217 222 228 228
264 265 289 308 306 293 284 262 287 299 292 286 292 302 306 302 301 301 302 303 300 296 292 289 285 288 290 287 281 276 268 276 277 279 280 281 283 284 273 275 277 276 281 282 279 279 277 273 264 260 254 248 248 252 253 252 248 249 251 254 255 268 286 285 284 281 277 274 267 257 252 247 245 246 240 240 239 240 233 226 223 216 217 226 229
267 299 313 297 288 294 305 314 305 301 305 312 313 307 302 298 287 290 289 291 293 296 296 294 295 291 290 282 277 278 280 284 288 286 286 286 285 284 281 274 275 285 286 283 280 273 268 269 270 263 260 253 248 244 245 249 251 247 251 254 265 276 277 280 285 285 277 268 259 258 257 253 250 243 242 237 234 230 229 228 228 222 222 226 229
331 336 319 316 321 321 319 317 315 315 308 306 301 298 301 303 299 295 291 297 299 301 300 298 297 296 291 286 279 280 278 282 283 284 285 286 285 283 279 276 280 277 276 278 276 273 270 268 269 272 270 265 260 258 258 258 258 247 244 251 259 266 276 274 269 270 268 264 260 257 254 251 249 246 238 238 232 230 228 227 228 224 226 230 231
0 343 333 327 322 317 315 313 305 300 296 301 300 297 301 299 298 301 305 302 303 302 300 301 300 298 298 297 297 293 287 278 278 279 284 286 281 279 279 279 277 269 274 277 275 270 268 267 265 267 269 269 267 263 262 260 255 253 253 256 263 270 270 263 258 256 259 259 258 255 249 244 243 244 242 237 235 222 223 223 223 227 229 233 237
358 337 326 316 313 305 307 301 300 301 297 295 297 299 301 308 310 310 311 304 301 301 297 301 301 301 299 298 297 296 294 285 274 278 281 286 283 278 278 278 280 277 277 270 268 266 262 262 265 269 271 269 266 269 269 260 250 249 248 247 249 252 256 251 252 254 254 251 251 254 251 250 250 253 262 264 257 238 229 229 204 221 221 224 235
349 325 313 311 305 307 308 308 305 294 295 292 282 286 296 306 310 309 308 303 300 300 302 303 303 302 298 293 288 294 292 294 291 291 291 294 293 288 287 287 295 290 287 284 285 284 278 271 268 269 269 267 266 258 245 246 243 240 244 246 239 245 249 250 252 250 251 248 248 251 251 253 253 256 263 261 250 234 224 219 201 205 210 220 229
332 324 319 311 308 312 312 295 298 304 303 299 293 295 291 284 295 300 297 296 298 298 300 302 304 302 302 300 298 294 291 293 296 298 296 296 298 306 312 305 300 297 291 282 280 276 273 269 266 263 259 258 254 254 256 261 266 270 270 264 257 253 248 245 247 251 253 254 253 252 252 253 256 259 256 253 249 243 223 225 215 204 200 215 226
345 322 314 309 310 312 303 309 315 303 304 307 305 303 293 280 293 292 292 292 295 298 297 299 301 303 302 302 304 302 301 298 298 301 305 310 315 311 304 300 296 293 289 284 281 278 278 273 265 261 263 261 251 244 243 249 260 265 259 257 256 253 250 253 257 247 243 240 250 256 254 244 241 241 244 244 244 239 221 216 216 230 219 199 217
338 326 324 329 319 312 309 297 291 300 302 305 291 280 276 299 296 288 279 269 260 272 285 287 291 292 294 299 304 307 302 301 304 315 310 309 303 301 304 304 303 297 290 297 302 297 287 274 267 265 256 258 259 257 255 261 266 259 256 259 256 253 246 243 246 249 251 247 245 243 245 242 245 241 240 240 235 229 215 223 218 222 224 210 215
349 340 326 321 314 313 311 305 302 301 302 297 306 306 289 276 267 280 288 286 280 275 261 262 271 288 292 286 284 292 299 299 302 304 303 301 296 289 284 282 281 279 286 293 289 280 268 263 254 246 246 246 252 251 254 254 260 260 255 251 253 257 256 252 251 255 249 243 244 243 242 240 244 238 233 237 238 228 218 216 223 216 224 205 210
341 332 326 326 317 316 312 307 305 303 297 300 309 310 310 305 254 244 257 265 271 275 280 275 273 267 255 276 284 280 283 288 292 296 299 294 287 285 290 292 292 290 288 298 281 245 254 254 255 253 247 245 248 253 251 247 249 252 255 257 254 250 253 254 252 253 246 244 239 241 244 241 242 244 245 243 240 229 226 216 222 221 223 230 230
340 319 318 305 312 312 308 308 313 312 311 307 309 310 311 310 311 246 231 251 257 264 267 273 275 278 278 272 276 290 292 290 296 300 297 295 290 290 289 289 289 288 292 250 249 257 242 249 252 250 249 245 249 252 247 244 246 250 256 255 249 248 249 248 247 250 248 244 238 239 244 245 244 242 240 242 239 237 234 223 218 216 218 215 215
341 320 307 305 307 317 318 316 314 311 306 311 312 312 313 316 313 319 281 223 242 257 265 267 272 278 281 281 273 262 271 280 287 288 291 291 291 289 288 290 288 279 259 224 235 252 251 250 255 252 244 245 249 247 247 249 247 250 253 252 255 252 247 244 237 242 242 245 240 238 234 236 238 239 236 233 231 234 231 233 229 223 217 212 214
291 267 288 300 316 313 313 308 306 307 308 307 311 311 312 308 308 309 313 321 299 261 255 260 268 275 274 270 273 281 286 290 290 293 296 295 292 291 296 295 282 267 235 240 234 247 245 252 251 253 252 251 252 251 251 250 248 250 249 245 247 248 248 246 243 244 245 239 240 246 241 236 232 235 238 240 236 236 233 231 232 226 216 212 208
325 309 319 325 313 305 300 304 307 315 316 319 316 315 311 310 306 306 312 313 314 316 322 307 268 261 287 295 291 289 293 295 295 296 298 296 296 296 308 301 297 283 219 223 238 244 247 250 255 254 252 249 250 248 247 246 245 243 240 245 246 253 255 249 246 250 245 243 246 248 249 244 238 233 233 238 235 232 235 235 234 234 233 228 221
316 310 301 312 310 290 300 301 311 316 318 317 320 320 319 315 313 313 310 307 308 312 314 311 313 311 298 288 288 296 300 298 295 296 296 296 294 303 311 289 289 287 281 257 231 231 234 243 247 250 249 251 252 251 253 254 251 250 253 260 270 272 271 266 263 256 244 244 247 256 256 252 250 251 250 245 245 243 236 226 228 230 231 233 225
309 306 301 296 289 291 297 307 302 318 329 327 326 324 325 321 320 318 319 318 314 313 312 314 311 308 308 313 321 315 307 301 302 299 294 287 283 287 264 269 273 279 277 277 270 265 260 254 247 248 252 253 250 247 248 252 255 261 263 263 266 271 271 272 272 268 266 263 261 257 256 258 255 251 247 246 242 243 242 236 225 219 216 222 220
271 283 277 282 292 301 311 312 323 332 329 328 330 332 331 329 328 328 325 322 320 317 315 316 318 315 318 317 324 322 321 314 306 297 277 271 278 269 262 264 271 278 286 286 279 265 268 265 253 245 245 247 243 241 244 249 252 252 258 260 267 268 277 280 283 287 284 261 252 249 249 247 249 250 239 238 235 235 235 228 229 228 217 221 217
301 293 298 309 311 312 316 323 330 332 328 330 331 333 331 332 334 332 331 327 322 318 318 315 313 314 316 317 319 322 322 319 325 319 317 314 300 291 288 286 282 282 282 283 287 288 286 284 272 262 252 247 243 242 242 244 245 243 245 248 251 247 252 235 222 234 259 258 253 239 241 246 239 237 235 233 230 225 228 227 223 226 231 218 207
305 303 294 300 310 314 325 327 327 325 323 327 324 327 324 324 322 323 319 320 323 322 319 316 316 316 313 318 321 323 318 316 313 313 312 310 305 303 299 295 294 289 290 288 288 285 288 286 285 279 271 264 255 249 247 250 253 261 262 259 251 247 243 248 242 247 250 242 246 249 245 247 248 248 249 245 237 226 225 220 217 209 219 222 210
285 291 304 318 303 314 319 320 317 314 318 319 319 317 315 321 321 324 327 322 314 317 315 315 314 310 310 311 312 315 309 304 305 304 305 306 310 310 304 298 293 292 291 288 288 287 285 283 281 278 274 266 255 246 249 253 255 255 255 244 239 254 261 268 280 267 261 252 243 239 245 243 244 242 252 250 243 237 229 216 211 206 205 208 208
297 300 306 305 309 315 316 315 310 316 311 311 316 318 324 327 326 325 324 320 317 317 316 316 315 314 311 314 318 317 312 303 299 304 308 308 303 300 298 297 295 292 293 295 292 293 293 290 284 273 266 256 251 243 243 243 245 256 237 235 256 285 298 284 274 258 234 225 246 260 269 279 281 274 266 265 251 240 233 222 208 205 202 193 191
292 289 303 307 310 318 321 317 314 305 307 309 313 325 325 325 327 328 326 325 325 322 320 321 320 320 319 322 318 313 309 308 319 313 308 306 306 302 301 300 301 299 297 295 293 292 293 296 290 276 252 242 237 236 233 232 215 212 224 239 293 289 255 264 243 214 210 238 271 23 3 347 359 333 322 293 256 220 220 208 200 195 191 177 168
309 314 312 306 311 318 317 317 315 311 303 318 328 324 320 323 324 324 325 323 326 326 325 321 320 321 322 323 320 319 321 320 313 311 313 311 310 311 312 308 307 306 306 304 302 304 303 302 303 288 239 230 237 243 244 248 222 195 174 195 231 249 263 252 216 201 164 104 86 48 53 39 26 45 37 28 46 63 81 94 99 102 106 109 109
335 325 318 313 311 316 319 324 318 314 316 321 313 313 322 323 324 326 332 327 330 329 326 325 327 323 321 323 324 325 323 318 316 317 313 312 311 312 311 310 308 307 307 307 307 308 308 311 309 308 293 252 242 246 253 243 142 173 207 204 192 234 246 211 188 201 106 114 82 82 70 61 60 56 56 50 54 64 69 78 90 94 92 92 95
347 342 330 325 325 325 331 327 328 323 322 323 318 318 319 323 324 329 336 336 333 330 328 326 324 322 321 321 324 325 321 320 320 317 316 319 317 314 314 311 309 307 306 305 307 310 313 312 310 313 308 282 255 259 251 234 197 188 203 246 205 239 255 210 155 127 128 98 91 81 80 74 70 68 72 71 67 68 70 74 76 81 90 93 92
4 355 344 334 333 333 338 335 325 329 342 330 324 321 320 322 326 330 328 332 333 332 331 325 327 325 325 326 326 325 323 324 322 322 322 321 321 317 316 315 315 312 312 309 308 310 309 312 307 309 316 327 306 289 256 215 192 219 204 217 230 251 234 185 139 117 109 92 86 76 77 77 71 70 75 77 79 75 72 77 79 83 81 86 88
20 356 335 334 333 342 338 338 333 342 335 326 323 321 322 323 326 329 328 332 334 331 331 329 329 328 327 327 324 325 324 323 322 323 325 325 322 320 319 320 319 318 315 314 317 316 315 313 311 312 314 316 340 55 95 66 337 268 238 233 219 243 179 166 133 128 111 101 90 91 95 86 78 77 81 82 83 87 85 82 80 82 89 89 88
34 354 330 334 343 345 334 333 327 326 321 321 319 322 322 324 325 328 329 327 330 329 331 334 333 330 328 328 328 327 324 329 329 329 329 327 326 325 323 321 322 324 323 324 325 325 321 319 318 320 317 313 312 331 8 31 52 216 217 250 224 173 165 148 133 128 120 105 98 91 92 90 90 92 91 85 87 87 88 86 84 88 86 88 91
52 329 319 329 329 317 315 313 297 301 311 317 318 321 324 323 325 328 330 326 328 328 332 336 335 333 332 332 332 332 332 335 336 333 332 332 333 330 328 329 331 334 332 331 329 331 330 328 328 327 324 321 321 322 314 7 48 335 335 312 294 173 166 131 126 140 128 111 108 103 107 108 109 102 99 100 97 95 93 93 95 93 90 89 87
39 334 307 290 291 300 303 301 305 312 312 310 322 325 325 324 324 325 326 327 329 327 330 334 332 333 334 332 332 331 334 334 335 335 335 333 334 333 332 335 338 337 337 335 338 341 338 338 332 329 330 337 325 323 338 337 27 28 335 335 330 170 146 127 126 125 116 113 111 114 106 113 117 110 104 101 101 99 101 99 98 94 91 91 97